Location: Amarillo Post Office Jordan Station
(35.1907°N, 101.9342°W)
Time: 13:10:36
(UTC+00:00)

Cosmos 2026 Rocket - Pass Details

Date: 24 January 2021
Orbit: 940 x 1000 km, 82.9° (Epoch: 03 March)

Event Time Altitude Azimuth Distance (km) Brightness Sun altitude
Rises 12:50:53 0° 353° (N) 3,716 6.8 -12.6°
Reaches altitude 10° 12:53:25 10° 353° (N) 2,768 6.2 -12.1°
Maximum altitude 12:59:48 86° 265° (W) 1,007 4.0 -10.9°
Drops below altitude 10° 13:06:09 10° 177° (S) 2,759 6.6 -9.6°
Sets 13:08:40 0° 177° (S) 3,702 7.3 -9.1°
